| time (UTC) | temp F | wind direction | speed MPH | gust MPH | rain 1hr in | rain 24hr in | rain mn in | humidity % | barometer mb |
| 20260903143520 | 81 | 60 | 2.0 | 5.0 | 0.00 | 0.00 | 0.00 | 81 | 1023.1 |
| 20260903143019 | 80 | 356 | 2.0 | 5.0 | 0.00 | 0.00 | 0.00 | 81 | 1023.1 |
| 20260903142248 | 80 | 69 | 2.0 | 5.0 | 0.00 | 0.00 | 0.00 | 82 | 1023.0 |
| 20260903142238 | 80 | 72 | 2.0 | 5.0 | 0.00 | 0.00 | 0.00 | 82 | 1023.0 |
| 20260903141728 | 79 | 84 | 2.0 | 4.0 | 0.00 | 0.00 | 0.00 | 84 | 1023.0 |
| 20260903140745 | 79 | 63 | 2.0 | 4.0 | 0.00 | 0.00 | 0.00 | 85 | 1023.1 |
| 20260903140245 | 79 | 71 | 2.0 | 4.0 | 0.00 | 0.00 | 0.00 | 86 | 1023.1 |
| 20260903135748 | 78 | 70 | 2.0 | 4.0 | 0.00 | 0.00 | 0.00 | 87 | 1023.1 |
| 20260903135246 | 78 | 71 | 2.0 | 4.0 | 0.00 | 0.00 | 0.00 | 87 | 1023.1 |
| 20260903134737 | 78 | 71 | 2.0 | 4.0 | 0.00 | 0.00 | 0.00 | 88 | 1023.1 |
| 20260903134238 | 76 | 48 | 3.0 | 3.0 | 0.00 | 0.00 | 0.00 | 89 | 1023.1 |
| 20260903133934 | 76 | 48 | 3.0 | 3.0 | 0.00 | 0.00 | 0.00 | 89 | 1023.1 |
| 20260903133213 | 76 | 48 | 3.0 | 4.0 | 0.00 | 0.00 | 0.00 | 89 | 1023.1 |
| 20260903132914 | 76 | 16 | 3.0 | 4.0 | 0.00 | 0.00 | 0.00 | 90 | 1023.4 |
| 20260903132145 | 76 | 65 | 3.0 | 4.0 | 0.00 | 0.00 | 0.00 | 90 | 1023.4 |
| 20260903131911 | 76 | 27 | 2.0 | 4.0 | 0.00 | 0.00 | 0.00 | 91 | 1023.4 |
| 20260903131145 | 75 | 71 | 2.0 | 4.0 | 0.00 | 0.00 | 0.00 | 92 | 1023.4 |
| 20260903130646 | 75 | 69 | 2.0 | 4.0 | 0.00 | 0.00 | 0.00 | 93 | 1023.4 |
| 20260903130146 | 74 | 0 | 2.0 | 4.0 | 0.00 | 0.00 | 0.00 | 93 | 1023.4 |
| 20260903125646 | 74 | 48 | 2.0 | 4.0 | 0.00 | 0.00 | 0.00 | 93 | 1023.4 |
| 20260903125145 | 74 | 63 | 2.0 | 4.0 | 0.00 | 0.00 | 0.00 | 94 | 1023.4 |
| 20260903124645 | 74 | 17 | 2.0 | 4.0 | 0.00 | 0.00 | 0.00 | 94 | 1023.4 |
| 20260903124146 | 74 | 7 | 2.0 | 4.0 | 0.00 | 0.00 | 0.00 | 95 | 1023.4 |
| 20260903124127 | 73 | 60 | 2.0 | 5.0 | 0.00 | 0.00 | 0.00 | 96 | 1023.4 |
| 20260903123142 | 73 | 65 | 2.0 | 5.0 | 0.00 | 0.00 | 0.00 | 96 | 1023.4 |
| 20260903122643 | 73 | 39 | 2.0 | 4.0 | 0.00 | 0.00 | 0.00 | 97 | 1023.4 |
| 20260903122140 | 73 | 62 | 2.0 | 4.0 | 0.00 | 0.00 | 0.00 | 97 | 1023.4 |
| 20260903121640 | 72 | 64 | 2.0 | 4.0 | 0.00 | 0.00 | 0.00 | 98 | 1023.4 |
| 20260903121138 | 72 | 58 | 2.0 | 4.0 | 0.00 | 0.00 | 0.00 | 98 | 1023.1 |
| 20260903120638 | 72 | 59 | 2.0 | 4.0 | 0.00 | 0.00 | 0.00 | 98 | 1023.1 |
| 20260903120134 | 72 | 4 | 2.0 | 4.0 | 0.00 | 0.00 | 0.00 | 99 | 1023.1 |
| 20260903115625 | 71 | 2 | 3.0 | 5.0 | 0.00 | 0.00 | 0.00 | 98 | 1023.0 |
| 20260903115120 | 71 | 7 | 3.0 | 5.0 | 0.00 | 0.00 | 0.00 | 98 | 1023.0 |
| 20260903114620 | 71 | 13 | 3.0 | 5.0 | 0.00 | 0.00 | 0.00 | 98 | 1023.0 |
| 20260903114117 | 71 | 354 | 4.0 | 6.0 | 0.00 | 0.00 | 0.00 | 98 | 1022.9 |
| 20260903113618 | 71 | 11 | 4.0 | 6.0 | 0.00 | 0.00 | 0.00 | 98 | 1022.9 |
| 20260903113118 | 71 | 3 | 4.0 | 5.0 | 0.00 | 0.00 | 0.00 | 98 | 1022.9 |
| 20260903112618 | 71 | 359 | 3.0 | 5.0 | 0.00 | 0.00 | 0.00 | 98 | 1022.6 |
| 20260903112118 | 71 | 10 | 3.0 | 5.0 | 0.00 | 0.00 | 0.00 | 98 | 1022.6 |
| 20260903111615 | 71 | 12 | 2.0 | 5.0 | 0.00 | 0.00 | 0.00 | 98 | 1022.6 |
| 20260903111334 | 71 | 15 | 3.0 | 4.0 | 0.00 | 0.00 | 0.00 | 98 | 1022.4 |
| 20260903110615 | 71 | 10 | 3.0 | 5.0 | 0.00 | 0.00 | 0.00 | 98 | 1022.4 |
| 20260903110115 | 71 | 1 | 2.0 | 5.0 | 0.00 | 0.00 | 0.00 | 97 | 1022.4 |
| 20260903105613 | 71 | 6 | 2.0 | 4.0 | 0.00 | 0.00 | 0.00 | 97 | 1022.3 |
| 20260903105313 | 72 | 18 | 3.0 | 4.0 | 0.00 | 0.00 | 0.00 | 97 | 1022.3 |
| 20260903105154 | 72 | 21 | 3.0 | 4.0 | 0.00 | 0.00 | 0.00 | 97 | 1022.3 |
| 20260903104112 | 72 | 2 | 3.0 | 5.0 | 0.00 | 0.00 | 0.00 | 96 | 1022.3 |
| 20260903103610 | 72 | 19 | 3.0 | 5.0 | 0.00 | 0.00 | 0.00 | 96 | 1022.3 |
| 20260903103336 | 72 | 22 | 2.0 | 4.0 | 0.00 | 0.00 | 0.00 | 96 | 1022.3 |
| 20260903102555 | 72 | 9 | 2.0 | 4.0 | 0.00 | 0.00 | 0.00 | 96 | 1022.2 |
| 20260903102048 | 72 | 24 | 2.0 | 4.0 | 0.00 | 0.00 | 0.00 | 96 | 1022.2 |
| 20260903101806 | 73 | 45 | 2.0 | 4.0 | 0.00 | 0.00 | 0.00 | 96 | 1022.2 |
| 20260903101040 | 73 | 50 | 2.0 | 3.0 | 0.00 | 0.00 | 0.00 | 96 | 1022.2 |
| 20260903100759 | 73 | 51 | 2.0 | 4.0 | 0.00 | 0.00 | 0.00 | 96 | 1022.2 |
| 20260903100041 | 73 | 66 | 2.0 | 5.0 | 0.00 | 0.00 | 0.00 | 96 | 1022.2 |
| 20260903095802 | 72 | 68 | 2.0 | 5.0 | 0.00 | 0.00 | 0.00 | 96 | 1022.1 |
| 20260903095035 | 72 | 28 | 2.0 | 5.0 | 0.00 | 0.00 | 0.00 | 96 | 1022.1 |
| 20260903094802 | 72 | 65 | 2.0 | 4.0 | 0.00 | 0.00 | 0.00 | 97 | 1022.1 |
| 20260903094258 | 72 | 42 | 2.0 | 4.0 | 0.00 | 0.00 | 0.00 | 97 | 1022.0 |
| 20260903093753 | 72 | 60 | 2.0 | 3.0 | 0.00 | 0.00 | 0.00 | 97 | 1022.0 |
| 20260903093032 | 72 | 59 | 1.0 | 3.0 | 0.00 | 0.00 | 0.00 | 97 | 1022.0 |
| 20260903092532 | 72 | 17 | 1.0 | 3.0 | 0.00 | 0.00 | 0.00 | 97 | 1022.0 |
| 20260903092033 | 72 | 17 | 1.0 | 3.0 | 0.00 | 0.00 | 0.00 | 97 | 1022.0 |
| 20260903091532 | 72 | 17 | 1.0 | 2.0 | 0.00 | 0.00 | 0.00 | 97 | 1022.0 |
| 20260903091032 | 72 | 17 | 1.0 | 2.0 | 0.00 | 0.00 | 0.00 | 97 | 1022.0 |
| 20260903090532 | 72 | 17 | 1.0 | 2.0 | 0.00 | 0.00 | 0.00 | 97 | 1022.0 |
| 20260903090031 | 72 | 18 | 0.0 | 2.0 | 0.00 | 0.00 | 0.00 | 97 | 1022.0 |
| 20260903085513 | 72 | 18 | 0.0 | 2.0 | 0.00 | 0.00 | 0.00 | 97 | 1021.9 |
| 20260903085013 | 73 | 11 | 2.0 | 2.0 | 0.00 | 0.00 | 0.00 | 96 | 1021.9 |
| 20260903084510 | 73 | 7 | 2.0 | 3.0 | 0.00 | 0.00 | 0.00 | 96 | 1021.9 |
| 20260903083950 | 73 | 7 | 2.0 | 5.0 | 0.00 | 0.00 | 0.00 | 96 | 1021.8 |
| 20260903083452 | 73 | 18 | 2.0 | 5.0 | 0.00 | 0.00 | 0.00 | 96 | 1021.8 |
| 20260903082940 | 73 | 13 | 2.0 | 5.0 | 0.00 | 0.00 | 0.00 | 96 | 1021.8 |
| 20260903082440 | 73 | 3 | 2.0 | 5.0 | 0.00 | 0.00 | 0.00 | 96 | 1021.7 |
| 20260903081937 | 73 | 14 | 2.0 | 5.0 | 0.00 | 0.00 | 0.00 | 96 | 1021.7 |
| 20260903081641 | 73 | 11 | 3.0 | 4.0 | 0.00 | 0.00 | 0.00 | 97 | 1021.8 |
| 20260903081524 | 73 | 23 | 2.0 | 5.0 | 0.00 | 0.00 | 0.00 | 96 | 1021.7 |
| 20260903080433 | 73 | 14 | 3.0 | 5.0 | 0.00 | 0.00 | 0.00 | 96 | 1021.8 |
| 20260903075925 | 73 | 6 | 3.0 | 5.0 | 0.00 | 0.00 | 0.00 | 96 | 1021.8 |
| 20260903075425 | 73 | 358 | 3.0 | 5.0 | 0.00 | 0.00 | 0.00 | 96 | 1021.8 |
| 20260903074925 | 73 | 353 | 3.0 | 4.0 | 0.00 | 0.00 | 0.00 | 96 | 1021.8 |
| 20260903074422 | 74 | 354 | 3.0 | 4.0 | 0.00 | 0.00 | 0.00 | 96 | 1021.8 |
| 20260903074141 | 74 | 10 | 3.0 | 5.0 | 0.00 | 0.00 | 0.00 | 96 | 1021.8 |
| 20260903073425 | 74 | 14 | 3.0 | 5.0 | 0.00 | 0.00 | 0.00 | 96 | 1021.8 |
| 20260903073138 | 74 | 2 | 2.0 | 5.0 | 0.00 | 0.00 | 0.00 | 96 | 1021.8 |
| 20260903072420 | 74 | 355 | 2.0 | 4.0 | 0.00 | 0.00 | 0.00 | 96 | 1021.8 |
| 20260903071920 | 74 | 12 | 2.0 | 3.0 | 0.00 | 0.00 | 0.00 | 96 | 1021.8 |
| 20260903071420 | 74 | 12 | 2.0 | 3.0 | 0.00 | 0.00 | 0.00 | 96 | 1021.8 |
| 20260903070923 | 74 | 12 | 3.0 | 3.0 | 0.00 | 0.00 | 0.00 | 95 | 1021.8 |
| 20260903070418 | 74 | 7 | 3.0 | 5.0 | 0.00 | 0.00 | 0.00 | 95 | 1021.8 |
| 20260903065915 | 74 | 0 | 3.0 | 5.0 | 0.00 | 0.00 | 0.00 | 95 | 1021.8 |
| 20260903065629 | 74 | 16 | 3.0 | 4.0 | 0.00 | 0.00 | 0.00 | 95 | 1021.8 |
| 20260903064907 | 74 | 359 | 2.0 | 4.0 | 0.00 | 0.00 | 0.00 | 95 | 1021.8 |
| 20260903064405 | 74 | 359 | 2.0 | 4.0 | 0.00 | 0.00 | 0.00 | 95 | 1021.8 |
| 20260903064122 | 74 | 357 | 3.0 | 4.0 | 0.00 | 0.00 | 0.00 | 95 | 1021.9 |
| 20260903063401 | 74 | 7 | 3.0 | 5.0 | 0.00 | 0.00 | 0.00 | 95 | 1021.9 |
| 20260903062857 | 75 | 7 | 3.0 | 5.0 | 0.00 | 0.00 | 0.00 | 95 | 1021.9 |
| 20260903062357 | 75 | 357 | 3.0 | 5.0 | 0.00 | 0.00 | 0.00 | 95 | 1021.9 |
| 20260903061857 | 75 | 347 | 3.0 | 5.0 | 0.00 | 0.00 | 0.00 | 94 | 1021.9 |
| 20260903061843 | 75 | 8 | 3.0 | 4.0 | 0.00 | 0.00 | 0.00 | 94 | 1021.9 |
| 20260903061115 | 75 | 8 | 2.0 | 4.0 | 0.00 | 0.00 | 0.00 | 94 | 1021.9 |
| 20260903060358 | 75 | 5 | 2.0 | 5.0 | 0.00 | 0.00 | 0.00 | 94 | 1021.9 |
| 20260903055858 | 75 | 9 | 2.0 | 5.0 | 0.00 | 0.00 | 0.00 | 94 | 1021.9 |
| 20260903055352 | 75 | 16 | 2.0 | 3.0 | 0.00 | 0.00 | 0.00 | 94 | 1021.9 |
| 20260903054845 | 75 | 17 | 2.0 | 3.0 | 0.00 | 0.00 | 0.00 | 94 | 1021.9 |
| 20260903054345 | 76 | 17 | 2.0 | 3.0 | 0.00 | 0.00 | 0.00 | 93 | 1021.9 |
| 20260903053845 | 76 | 17 | 2.0 | 3.0 | 0.00 | 0.00 | 0.00 | 93 | 1021.9 |
| 20260903053348 | 76 | 13 | 2.0 | 4.0 | 0.00 | 0.00 | 0.00 | 93 | 1021.9 |
| 20260903052838 | 76 | 13 | 3.0 | 4.0 | 0.00 | 0.00 | 0.00 | 93 | 1021.9 |
| 20260903052332 | 76 | 14 | 3.0 | 5.0 | 0.00 | 0.00 | 0.00 | 93 | 1022.0 |
| 20260903051832 | 76 | 341 | 3.0 | 5.0 | 0.00 | 0.00 | 0.00 | 93 | 1022.0 |
| 20260903051556 | 76 | 17 | 3.0 | 4.0 | 0.00 | 0.00 | 0.00 | 93 | 1022.0 |
| 20260903050830 | 76 | 14 | 3.0 | 5.0 | 0.00 | 0.00 | 0.00 | 92 | 1022.1 |
| 20260903050325 | 76 | 18 | 3.0 | 5.0 | 0.00 | 0.00 | 0.00 | 92 | 1022.1 |
| 20260903045828 | 76 | 13 | 4.0 | 5.0 | 0.00 | 0.00 | 0.00 | 92 | 1022.1 |
| 20260903045542 | 76 | 21 | 4.0 | 5.0 | 0.00 | 0.00 | 0.00 | 92 | 1022.0 |
| 20260903045046 | 76 | 6 | 4.0 | 5.0 | 0.00 | 0.00 | 0.00 | 92 | 1022.0 |
| 20260903044732 | 76 | 358 | 4.0 | 5.0 | 0.00 | 0.00 | 0.00 | 92 | 1022.0 |
| 20260903043755 | 77 | 334 | 3.0 | 4.0 | 0.00 | 0.00 | 0.00 | 91 | 1022.0 |
| 20260903043243 | 77 | 334 | 3.0 | 6.0 | 0.00 | 0.00 | 0.00 | 91 | 1022.0 |
| 20260903042732 | 77 | 334 | 3.0 | 6.0 | 0.00 | 0.00 | 0.00 | 91 | 1022.2 |
| 20260903042445 | 77 | 18 | 3.0 | 5.0 | 0.00 | 0.00 | 0.00 | 91 | 1022.2 |
| 20260903041725 | 77 | 6 | 4.0 | 6.0 | 0.00 | 0.00 | 0.00 | 91 | 1022.2 |
| 20260903041225 | 77 | 11 | 4.0 | 6.0 | 0.00 | 0.00 | 0.00 | 91 | 1022.2 |
| 20260903041211 | 77 | 13 | 4.0 | 5.0 | 0.00 | 0.00 | 0.00 | 90 | 1022.2 |
| 20260903040215 | 77 | 349 | 4.0 | 6.0 | 0.00 | 0.00 | 0.00 | 90 | 1022.2 |
| 20260903035715 | 78 | 18 | 4.0 | 6.0 | 0.00 | 0.00 | 0.00 | 90 | 1022.2 |
| 20260903035215 | 78 | 11 | 4.0 | 6.0 | 0.00 | 0.00 | 0.00 | 90 | 1022.2 |
| 20260903034715 | 78 | 25 | 3.0 | 6.0 | 0.00 | 0.00 | 0.00 | 90 | 1022.2 |
| 20260903034213 | 78 | 358 | 3.0 | 5.0 | 0.00 | 0.00 | 0.00 | 90 | 1022.3 |
| 20260903033713 | 78 | 4 | 2.0 | 5.0 | 0.00 | 0.00 | 0.00 | 90 | 1022.3 |
| 20260903033212 | 78 | 24 | 2.0 | 4.0 | 0.00 | 0.00 | 0.00 | 89 | 1022.3 |
| 20260903032710 | 78 | 0 | 2.0 | 4.0 | 0.00 | 0.00 | 0.00 | 89 | 1022.3 |
| 20260903032424 | 78 | 5 | 2.0 | 3.0 | 0.00 | 0.00 | 0.00 | 88 | 1022.3 |
| 20260903031701 | 78 | 5 | 2.0 | 3.0 | 0.00 | 0.00 | 0.00 | 88 | 1022.3 |
| 20260903031158 | 78 | 5 | 2.0 | 3.0 | 0.00 | 0.00 | 0.00 | 88 | 1022.2 |
| 20260903030628 | 78 | 4 | 2.0 | 4.0 | 0.00 | 0.00 | 0.00 | 88 | 1022.2 |
| 20260903030128 | 79 | 17 | 2.0 | 4.0 | 0.00 | 0.00 | 0.00 | 88 | 1022.2 |
| 20260903025627 | 79 | 9 | 1.0 | 2.0 | 0.00 | 0.00 | 0.00 | 86 | 1022.2 |
| 20260903025123 | 79 | 9 | 1.0 | 2.0 | 0.00 | 0.00 | 0.00 | 86 | 1022.2 |
| 20260903024619 | 80 | 9 | 3.0 | 2.0 | 0.00 | 0.00 | 0.00 | 84 | 1022.2 |
| 20260903024115 | 80 | 9 | 3.0 | 3.0 | 0.00 | 0.00 | 0.00 | 84 | 1022.2 |
| 20260903023617 | 80 | 9 | 3.0 | 4.0 | 0.00 | 0.00 | 0.00 | 84 | 1022.2 |
| 20260903023045 | 80 | 8 | 0.0 | 4.0 | 0.00 | 0.00 | 0.00 | 84 | 1022.2 |
| 20260903023027 | 80 | 1 | 0.0 | 4.0 | 0.00 | 0.00 | 0.00 | 84 | 1022.1 |
| 20260903022045 | 80 | 16 | 2.0 | 3.0 | 0.00 | 0.00 | 0.00 | 83 | 1022.1 |
| 20260903021805 | 81 | 16 | 2.0 | 3.0 | 0.00 | 0.00 | 0.00 | 81 | 1022.1 |
| 20260903021040 | 81 | 16 | 2.0 | 4.0 | 0.00 | 0.00 | 0.00 | 81 | 1022.1 |
| 20260903020515 | 81 | 16 | 2.0 | 4.0 | 0.00 | 0.00 | 0.00 | 81 | 1022.1 |
| 20260903020014 | 81 | 355 | 3.0 | 4.0 | 0.00 | 0.00 | 0.00 | 81 | 1022.1 |
| 20260903015737 | 81 | 355 | 3.0 | 4.0 | 0.00 | 0.00 | 0.00 | 80 | 1022.1 |
| 20260903015005 | 81 | 344 | 2.0 | 4.0 | 0.00 | 0.00 | 0.00 | 80 | 1022.1 |
| 20260903014502 | 82 | 355 | 2.0 | 4.0 | 0.00 | 0.00 | 0.00 | 79 | 1022.1 |
| 20260903014000 | 82 | 356 | 2.0 | 4.0 | 0.00 | 0.00 | 0.00 | 78 | 1022.1 |
| 20260903013721 | 82 | 356 | 2.0 | 3.0 | 0.00 | 0.00 | 0.00 | 78 | 1022.1 |
| 20260903013215 | 82 | 356 | 0.0 | 4.0 | 0.00 | 0.00 | 0.00 | 79 | 1022.1 |
| 20260903012456 | 82 | 357 | 0.0 | 4.0 | 0.00 | 0.00 | 0.00 | 78 | 1021.8 |
| 20260903011954 | 82 | 357 | 2.0 | 2.0 | 0.00 | 0.00 | 0.00 | 77 | 1021.8 |
| 20260903011940 | 82 | 356 | 2.0 | 3.0 | 0.00 | 0.00 | 0.00 | 77 | 1021.8 |
| 20260903010947 | 83 | 356 | 0.0 | 3.0 | 0.00 | 0.00 | 0.00 | 77 | 1021.6 |
| 20260903010451 | 83 | 357 | 0.0 | 2.0 | 0.00 | 0.00 | 0.00 | 77 | 1021.6 |
| 20260903005948 | 83 | 357 | 1.0 | 2.0 | 0.00 | 0.00 | 0.00 | 76 | 1021.6 |
| 20260903005447 | 83 | 357 | 1.0 | 2.0 | 0.00 | 0.00 | 0.00 | 75 | 1021.6 |
| 20260903004947 | 83 | 357 | 2.0 | 2.0 | 0.00 | 0.00 | 0.00 | 75 | 1021.6 |
| 20260903004445 | 83 | 356 | 2.0 | 3.0 | 0.00 | 0.00 | 0.00 | 74 | 1021.6 |
| 20260903003942 | 84 | 357 | 2.0 | 3.0 | 0.00 | 0.00 | 0.00 | 74 | 1021.4 |
| 20260903003440 | 85 | 357 | 3.0 | 3.0 | 0.00 | 0.00 | 0.00 | 71 | 1021.4 |
| 20260903002927 | 85 | 357 | 3.0 | 4.0 | 0.00 | 0.00 | 0.00 | 71 | 1021.4 |
| 20260903002419 | 85 | 357 | 3.0 | 4.0 | 0.00 | 0.00 | 0.00 | 71 | 1021.3 |
| 20260903001922 | 85 | 358 | 2.0 | 4.0 | 0.00 | 0.00 | 0.00 | 70 | 1021.3 |
| 20260903001415 | 86 | 358 | 2.0 | 4.0 | 0.00 | 0.00 | 0.00 | 69 | 1021.3 |
| 20260903001122 | 87 | 358 | 2.0 | 4.0 | 0.00 | 0.00 | 0.00 | 66 | 1021.3 |
| 20260903001010 | 86 | 358 | 2.0 | 4.0 | 0.00 | 0.00 | 0.00 | 68 | 1021.3 |
| 20260902235915 | 87 | 358 | 2.0 | 4.0 | 0.00 | 0.00 | 0.00 | 65 | 1021.3 |
| 20260902235415 | 88 | 358 | 2.0 | 3.0 | 0.00 | 0.00 | 0.00 | 64 | 1021.4 |
| 20260902234912 | 89 | 358 | 2.0 | 3.0 | 0.00 | 0.00 | 0.00 | 63 | 1021.4 |
| 20260902234406 | 92 | 358 | 1.0 | 2.0 | 0.00 | 0.00 | 0.00 | 56 | 1021.4 |
| 20260902233855 | 92 | 358 | 1.0 | 2.0 | 0.00 | 0.00 | 0.00 | 56 | 1021.4 |
| 20260902233350 | 92 | 358 | 1.0 | 3.0 | 0.00 | 0.00 | 0.00 | 56 | 1021.4 |
| 20260902232829 | 92 | 358 | 1.0 | 3.0 | 0.00 | 0.00 | 0.00 | 57 | 1021.4 |
| 20260902232326 | 92 | 358 | 1.0 | 2.0 | 0.00 | 0.00 | 0.00 | 54 | 1021.4 |
| 20260902232035 | 93 | 358 | 2.0 | 3.0 | 0.00 | 0.00 | 0.00 | 54 | 1021.4 |
| 20260902231305 | 93 | 358 | 2.0 | 3.0 | 0.00 | 0.00 | 0.00 | 52 | 1021.4 |
| 20260902230754 | 94 | 358 | 2.0 | 3.0 | 0.00 | 0.00 | 0.00 | 50 | 1021.4 |
| 20260902230247 | 94 | 358 | 2.0 | 3.0 | 0.00 | 0.00 | 0.00 | 50 | 1021.4 |
| 20260902225747 | 95 | 358 | 1.0 | 3.0 | 0.00 | 0.00 | 0.00 | 49 | 1021.4 |
| 20260902225245 | 95 | 358 | 1.0 | 3.0 | 0.00 | 0.00 | 0.00 | 49 | 1021.4 |
| 20260902224727 | 95 | 4 | 2.0 | 3.0 | 0.00 | 0.00 | 0.00 | 49 | 1021.4 |
| 20260902224451 | 95 | 4 | 2.0 | 3.0 | 0.00 | 0.00 | 0.00 | 49 | 1021.5 |
| 20260902223946 | 95 | 4 | 2.0 | 3.0 | 0.00 | 0.00 | 0.00 | 48 | 1021.5 |
| 20260902223224 | 95 | 4 | 2.0 | 3.0 | 0.00 | 0.00 | 0.00 | 48 | 1021.5 |
| 20260902222728 | 95 | 7 | 2.0 | 3.0 | 0.00 | 0.00 | 0.00 | 49 | 1021.5 |
| 20260902222212 | 96 | 7 | 2.0 | 3.0 | 0.00 | 0.00 | 0.00 | 47 | 1021.5 |
| 20260902221709 | 96 | 328 | 1.0 | 3.0 | 0.00 | 0.00 | 0.00 | 47 | 1021.5 |
| 20260902221210 | 97 | 309 | 1.0 | 3.0 | 0.00 | 0.00 | 0.00 | 47 | 1021.6 |
| 20260902220935 | 97 | 202 | 1.0 | 3.0 | 0.00 | 0.00 | 0.00 | 47 | 1021.6 |
| 20260902220210 | 97 | 203 | 1.0 | 3.0 | 0.00 | 0.00 | 0.00 | 47 | 1021.6 |
| 20260902215705 | 97 | 203 | 2.0 | 3.0 | 0.00 | 0.00 | 0.00 | 48 | 1021.6 |
| 20260902215419 | 97 | 198 | 2.0 | 3.0 | 0.00 | 0.00 | 0.00 | 46 | 1021.6 |
| 20260902214657 | 96 | 203 | 2.0 | 4.0 | 0.00 | 0.00 | 0.00 | 47 | 1021.6 |
| 20260902214154 | 96 | 202 | 2.0 | 4.0 | 0.00 | 0.00 | 0.00 | 46 | 1021.5 |
| 20260902213912 | 96 | 217 | 2.0 | 3.0 | 0.00 | 0.00 | 0.00 | 47 | 1021.5 |
| 20260902213155 | 96 | 216 | 2.0 | 3.0 | 0.00 | 0.00 | 0.00 | 46 | 1021.5 |
| 20260902212644 | 96 | 249 | 2.0 | 3.0 | 0.00 | 0.00 | 0.00 | 46 | 1021.6 |
| 20260902212359 | 95 | 290 | 2.0 | 4.0 | 0.00 | 0.00 | 0.00 | 48 | 1021.6 |
| 20260902211631 | 95 | 312 | 2.0 | 4.0 | 0.00 | 0.00 | 0.00 | 47 | 1021.6 |
| 20260902211351 | 95 | 250 | 2.0 | 4.0 | 0.00 | 0.00 | 0.00 | 48 | 1021.7 |
| 20260902210627 | 95 | 110 | 2.0 | 3.0 | 0.00 | 0.00 | 0.00 | 49 | 1021.7 |
| 20260902210127 | 95 | 7 | 2.0 | 4.0 | 0.00 | 0.00 | 0.00 | 47 | 1021.7 |
| 20260902205630 | 95 | 5 | 2.0 | 4.0 | 0.00 | 0.00 | 0.00 | 47 | 1021.8 |
| 20260902205125 | 95 | 5 | 2.0 | 4.0 | 0.00 | 0.00 | 0.00 | 47 | 1021.8 |
| 20260902204855 | 95 | 340 | 2.0 | 4.0 | 0.00 | 0.00 | 0.00 | 50 | 1021.8 |
| 20260902204124 | 95 | 14 | 2.0 | 4.0 | 0.00 | 0.00 | 0.00 | 47 | 1021.9 |
| 20260902203625 | 94 | 280 | 2.0 | 3.0 | 0.00 | 0.00 | 0.00 | 49 | 1021.9 |
| 20260902203124 | 93 | 30 | 2.0 | 4.0 | 0.00 | 0.00 | 0.00 | 52 | 1021.9 |
| 20260902202622 | 92 | 211 | 2.0 | 4.0 | 0.00 | 0.00 | 0.00 | 52 | 1022.0 |
| 20260902202122 | 92 | 359 | 2.0 | 4.0 | 0.00 | 0.00 | 0.00 | 52 | 1022.0 |
| 20260902201839 | 92 | 3 | 2.0 | 4.0 | 0.00 | 0.00 | 0.00 | 51 | 1022.0 |
| 20260902201559 | 92 | 356 | 3.0 | 4.0 | 0.00 | 0.00 | 0.00 | 54 | 1022.1 |
| 20260902200818 | 91 | 220 | 3.0 | 5.0 | 0.00 | 0.00 | 0.00 | 52 | 1022.1 |
| 20260902200326 | 91 | 356 | 2.0 | 5.0 | 0.00 | 0.00 | 0.00 | 51 | 1022.1 |
| 20260902195600 | 92 | 5 | 2.0 | 6.0 | 0.00 | 0.00 | 0.00 | 51 | 1022.2 |
| 20260902195059 | 92 | 29 | 2.0 | 6.0 | 0.00 | 0.00 | 0.00 | 53 | 1022.2 |
| 20260902194559 | 92 | 79 | 2.0 | 3.0 | 0.00 | 0.00 | 0.00 | 54 | 1022.2 |
| 20260902194059 | 92 | 44 | 2.0 | 3.0 | 0.00 | 0.00 | 0.00 | 54 | 1022.5 |
| 20260902193558 | 92 | 63 | 2.0 | 4.0 | 0.00 | 0.00 | 0.00 | 52 | 1022.5 |
| 20260902193056 | 92 | 51 | 2.0 | 5.0 | 0.00 | 0.00 | 0.00 | 50 | 1022.5 |
| 20260902192557 | 93 | 0 | 2.0 | 5.0 | 0.00 | 0.00 | 0.00 | 50 | 1022.6 |
| 20260902192057 | 93 | 265 | 3.0 | 5.0 | 0.00 | 0.00 | 0.00 | 51 | 1022.6 |
| 20260902191558 | 93 | 337 | 3.0 | 5.0 | 0.00 | 0.00 | 0.00 | 52 | 1022.6 |
| 20260902191052 | 93 | 353 | 4.0 | 7.0 | 0.00 | 0.00 | 0.00 | 52 | 1022.6 |
| 20260902190549 | 93 | 207 | 4.0 | 9.0 | 0.00 | 0.00 | 0.00 | 51 | 1022.6 |
| 20260902190047 | 92 | 198 | 2.0 | 9.0 | 0.00 | 0.00 | 0.00 | 51 | 1022.6 |
| 20260902185547 | 92 | 213 | 2.0 | 6.0 | 0.00 | 0.00 | 0.00 | 53 | 1022.9 |
| 20260902185047 | 91 | 253 | 2.0 | 5.0 | 0.00 | 0.00 | 0.00 | 53 | 1022.9 |
| 20260902184546 | 91 | 87 | 2.0 | 6.0 | 0.00 | 0.00 | 0.00 | 54 | 1022.9 |
| 20260902184044 | 91 | 350 | 3.0 | 6.0 | 0.00 | 0.00 | 0.00 | 53 | 1022.9 |
| 20260902183534 | 91 | 73 | 3.0 | 6.0 | 0.00 | 0.00 | 0.00 | 54 | 1022.9 |
| 20260902183034 | 91 | 355 | 3.0 | 5.0 | 0.00 | 0.00 | 0.00 | 55 | 1022.9 |
| 20260902182736 | 90 | 173 | 2.0 | 6.0 | 0.00 | 0.00 | 0.00 | 56 | 1023.1 |
| 20260902182618 | 90 | 341 | 3.0 | 5.0 | 0.00 | 0.00 | 0.00 | 54 | 1023.1 |
| 20260902181527 | 91 | 315 | 2.0 | 6.0 | 0.00 | 0.00 | 0.00 | 57 | 1023.1 |
| 20260902181249 | 91 | 74 | 2.0 | 5.0 | 0.00 | 0.00 | 0.00 | 56 | 1023.3 |
| 20260902180740 | 91 | 339 | 2.0 | 5.0 | 0.00 | 0.00 | 0.00 | 58 | 1023.3 |
| 20260902180021 | 90 | 6 | 2.0 | 5.0 | 0.00 | 0.00 | 0.00 | 57 | 1023.3 |
| 20260902175514 | 90 | 16 | 2.0 | 5.0 | 0.00 | 0.00 | 0.00 | 53 | 1023.4 |
| 20260902175231 | 90 | 74 | 2.0 | 5.0 | 0.00 | 0.00 | 0.00 | 55 | 1023.4 |
| 20260902174518 | 90 | 9 | 2.0 | 5.0 | 0.00 | 0.00 | 0.00 | 54 | 1023.4 |
| 20260902174014 | 90 | 339 | 2.0 | 5.0 | 0.00 | 0.00 | 0.00 | 57 | 1023.6 |
| 20260902173435 | 90 | 339 | 2.0 | 5.0 | 0.00 | 0.00 | 0.00 | 58 | 1023.6 |
| 20260902172921 | 90 | 339 | 2.0 | 6.0 | 0.00 | 0.00 | 0.00 | 58 | 1023.6 |
| 20260902172901 | 90 | 339 | 2.0 | 6.0 | 0.00 | 0.00 | 0.00 | 58 | 1023.9 |
| 20260902171914 | 90 | 29 | 3.0 | 6.0 | 0.00 | 0.00 | 0.00 | 58 | 1023.9 |
| 20260902171417 | 90 | 263 | 3.0 | 6.0 | 0.00 | 0.00 | 0.00 | 60 | 1023.9 |
| 20260902170914 | 89 | 198 | 3.0 | 5.0 | 0.00 | 0.00 | 0.00 | 62 | 1024.0 |
| 20260902170414 | 89 | 213 | 3.0 | 5.0 | 0.00 | 0.00 | 0.00 | 64 | 1024.0 |
| 20260902165914 | 89 | 331 | 2.0 | 6.0 | 0.00 | 0.00 | 0.00 | 62 | 1024.0 |
| 20260902165404 | 88 | 212 | 2.0 | 6.0 | 0.00 | 0.00 | 0.00 | 67 | 1024.2 |
| 20260902164904 | 88 | 223 | 2.0 | 4.0 | 0.00 | 0.00 | 0.00 | 65 | 1024.2 |
| 20260902164404 | 88 | 116 | 2.0 | 4.0 | 0.00 | 0.00 | 0.00 | 65 | 1024.2 |
| 20260902163904 | 87 | 211 | 2.0 | 6.0 | 0.00 | 0.00 | 0.00 | 66 | 1024.3 |
| 20260902163404 | 87 | 212 | 2.0 | 6.0 | 0.00 | 0.00 | 0.00 | 66 | 1024.3 |
| 20260902163124 | 87 | 193 | 2.0 | 5.0 | 0.00 | 0.00 | 0.00 | 69 | 1024.3 |
| 20260902162404 | 87 | 197 | 2.0 | 5.0 | 0.00 | 0.00 | 0.00 | 68 | 1024.4 |
| 20260902162131 | 86 | 179 | 2.0 | 5.0 | 0.00 | 0.00 | 0.00 | 70 | 1024.4 |
| 20260902161404 | 86 | 192 | 2.0 | 4.0 | 0.00 | 0.00 | 0.00 | 73 | 1024.4 |
| 20260902160904 | 85 | 85 | 3.0 | 4.0 | 0.00 | 0.00 | 0.00 | 72 | 1024.6 |
| 20260902160404 | 85 | 13 | 3.0 | 5.0 | 0.00 | 0.00 | 0.00 | 73 | 1024.6 |
| 20260902155904 | 85 | 173 | 2.0 | 5.0 | 0.00 | 0.00 | 0.00 | 72 | 1024.6 |
| 20260902155404 | 85 | 210 | 2.0 | 5.0 | 0.00 | 0.00 | 0.00 | 73 | 1024.6 |
| 20260902154902 | 84 | 180 | 2.0 | 4.0 | 0.00 | 0.00 | 0.00 | 73 | 1024.6 |
| 20260902154402 | 84 | 216 | 2.0 | 4.0 | 0.00 | 0.00 | 0.00 | 75 | 1024.6 |
| 20260902153904 | 84 | 183 | 2.0 | 5.0 | 0.00 | 0.00 | 0.00 | 75 | 1024.7 |
| 20260902153346 | 83 | 192 | 2.0 | 5.0 | 0.00 | 0.00 | 0.00 | 78 | 1024.7 |
| 20260902152846 | 83 | 92 | 2.0 | 5.0 | 0.00 | 0.00 | 0.00 | 78 | 1024.7 |
| 20260902152347 | 83 | 192 | 2.0 | 5.0 | 0.00 | 0.00 | 0.00 | 77 | 1024.7 |
| 20260902151846 | 82 | 209 | 2.0 | 4.0 | 0.00 | 0.00 | 0.00 | 77 | 1024.7 |
| 20260902151344 | 82 | 214 | 2.0 | 4.0 | 0.00 | 0.00 | 0.00 | 79 | 1024.7 |
| 20260902150844 | 81 | 189 | 2.0 | 4.0 | 0.00 | 0.00 | 0.00 | 79 | 1024.7 |
| 20260902150347 | 81 | 175 | 2.0 | 4.0 | 0.00 | 0.00 | 0.00 | 81 | 1024.7 |
| 20260902145821 | 81 | 161 | 2.0 | 4.0 | 0.00 | 0.00 | 0.00 | 82 | 1024.7 |
| 20260902145320 | 80 | 11 | 2.0 | 4.0 | 0.00 | 0.00 | 0.00 | 80 | 1024.5 |
| 20260902144822 | 80 | 65 | 2.0 | 3.0 | 0.00 | 0.00 | 0.00 | 82 | 1024.5 |
| 20260902144549 | 80 | 333 | 2.0 | 3.0 | 0.00 | 0.00 | 0.00 | 84 | 1024.5 |
| 20260902143811 | 79 | 336 | 1.0 | 3.0 | 0.00 | 0.00 | 0.00 | 86 | 1024.4 |